Regional Weather Roundup
Issued by NWS

Home | Current Version | Previous Version | Graphics & Text | Print | Product List | Glossary On
Versions: 1 2 3 4 5 6 7 8 9 10 11 12 13 14 15 16 17 18 19 20 21 22 23 24 25 26 27 28 29 30 31 32 33 34 35 36 37 38 39 40 41 42 43 44 45 46 47 48 49 50
488
ASUS45 KTFX 131210
RWRMT
MONTANA REGIONAL WEATHER ROUNDUP
NATIONAL WEATHER SERVICE GREAT FALLS MT
500 AM MST SAT FEB 13 2016

NOTE: "FAIR" INDICATES FEW OR NO CLOUDS BELOW 12000 FEET WITH NO
SIGNIFICANT WEATHER AND/OR OBSTRUCTIONS TO VISIBILITY.

MTZ001>007-043-131300-
WEST OF THE DIVIDE

CITY           SKY/WX    TMP DP  RH WIND       PRES   REMARKS
KALISPELL      CLOUDY    37  35  92 S9        30.00S WCI  30
MISSOULA       CLOUDY    36  36 100 CALM      30.07S
BUTTE          CLOUDY    40  30  67 S8        29.98F
MULLAN PASS    SNOW      28  27  96 MISG      30.02R VSB 1/2
ANACONDA         N/A     41  34  75 SW9       29.99R
DEER LODGE       N/A     36  36 100 N15       30.01S WCI  26
HAMILTON         N/A     41  34  75 N8        30.05S
PLAINS           N/A     39  36  89 W1        30.06S
$$

MTZ008-052>055-131300-
SOUTHWEST MONTANA

CITY           SKY/WX    TMP DP  RH WIND       PRES   REMARKS
BOZEMAN        CLOUDY    29  27  92 CALM      29.96F
DILLON         CLOUDY    37  23  56 S5        30.00S
ENNIS          PTCLDY    37  21  52 S17       30.06F WCI  28
TWIN BRIDGES     N/A     34  23  64 N6        30.01R WCI  29
$$

MTZ009-010-012-014-046-048-049-054-131300-
EAST SLOPES AND CENTRAL MONTANA

CITY           SKY/WX    TMP DP  RH WIND       PRES   REMARKS
CUT BANK       CLOUDY    42  27  55 W30G43    29.81F
GREAT FALLS    CLOUDY    42  32  67 W13       29.88R
MALMSTROM AFB  CLOUDY    44  33  66 W15       29.88R
HELENA         LGT RAIN  41  35  79 W10       29.97R
CHOTEAU          N/A     45  27  49 CALM      29.87S
CONRAD           N/A     44  35  70 CALM      29.86F
$$

MTZ011-013-016-021-045-047-050-051-131300-
NORTH CENTRAL MONTANA

CITY           SKY/WX    TMP DP  RH WIND       PRES   REMARKS
HAVRE          FOG       23  22  96 CALM      29.86F VSB 1/4
LEWISTOWN      CLOUDY    40  30  67 CALM      29.86F
N BAR RANCH      N/A     36  30  80 VRB3      29.89F
CHINOOK          N/A     25  25 100 E8        29.88S WCI  16
$$

MTZ017>020-022>027-061-062-131300-
NORTHEAST MONTANA

CITY           SKY/WX    TMP DP  RH WIND       PRES   REMARKS
GLASGOW        CLOUDY    17  13  84 E16       29.94F WCI   2
JORDAN           N/A     28  25  88 E5        29.90F
SIDNEY         MOCLDY    18  12  79 SE10      30.06F WCI   6
WOLF POINT     CLOUDY    18  12  77 E12       30.00F WCI   5
PLENTYWOOD       N/A     12  10  92 SE15      30.04F WCI  -4
POPLAR           N/A     18  12  79 E8        30.02F WCI   7
SCOBEY           N/A     14   3  61 SE15      29.95  WCI  -1
$$

MTZ028>42-056>058-131300-
SOUTHCENTRAL AND SOUTHEAST MONTANA

CITY           SKY/WX    TMP DP  RH WIND       PRES   REMARKS
BAKER          CLOUDY    21  17  84 SE17      30.00F WCI   7
BILLINGS       CLOUDY    34  30  85 SW14      29.90F WCI  25
LIVINGSTON     CLOUDY    48  24  39 SW28G41   29.92F
MILES CITY     CLOUDY    29  25  85 SE14      29.95F WCI  18
EKALAKA          N/A     22  18  85 SE17      29.93  WCI   8
FORSYTH          N/A     28  27  93 NE6       29.92F WCI  22
LAUREL           N/A     36  28  73 SW7       29.90F WCI  30
ROUNDUP          N/A     33  27  79 SW5       29.82F
$$

REGIONAL REPORTS...DAKOTAS

CITY           SKY/WX    TMP DP  RH WIND       PRES   REMARKS
WILLISTON      CLOUDY    14   8  77 SE13G21   30.10F WCI   0
MINOT          FLURRIES   9  -3  58 E13       30.27F WCI  -7
DICKINSON      CLOUDY    11   7  84 SE23G33   30.07F WCI  -9
BEACH          CLOUDY    18  18 100 SE18G25   30.04F WCI   2
CROSBY         CLOUDY    12   9  85 SE17      30.14F WCI  -5
TIOGA          FLURRIES   9   7  92 SE18      30.16F WCI -10
WATFORD CITY   CLOUDY    12   9  85 SE15      30.10F WCI  -4
BISMARCK       CLOUDY     9   0  67 SE14      30.33F WCI  -7
GRAND FORKS    CLOUDY    -7 -13  75 SE7       30.57F WCI -21
FARGO          CLOUDY    -6 -13  71 SE7       30.59F WCI -20
BUFFALO SD       N/A     19  16  88 SE16      29.98F WCI   4
RAPID CITY     CLOUDY    29  26  89 SE9       30.05F WCI  20
$$

REGIONAL REPORTS...WYOMING/IDAHO/WASHINGTON

CITY           SKY/WX    TMP DP  RH WIND       PRES   REMARKS
GILLETTE       CLOUDY    31  27  85 SE12      29.96F WCI  22
SHERIDAN       CLOUDY    30  27  86 CALM      29.92F
BUFFALO WY     CLOUDY    44  25  47 MISG      29.94F
CODY           CLOUDY    48  28  46 SW20G33   29.94F
YELLOWSTONE LA   N/A     30  25  81 NW3       30.14S
IDAHO FALLS    CLOUDY    21  18  88 W5        30.17F
SALMON         CLOUDY    25  23  93 SE7       30.07F WCI  17
BOISE          PTCLDY    32  31  96 CALM      30.23R FOG
SPOKANE        MOCLDY    40  38  93 SW9       30.11S
$$

REGIONAL REPORTS...ALBERTA

CITY           SKY/WX    TMP DP  RH WIND       PRES   REMARKS
EDMONTON       CLOUDY    19  16  86 S3        29.79S VSB 3/4
CALGARY        MOCLDY    41  23  48 W18G24    29.71S
LETHBRIDGE     CLEAR     41  28  60 W18G28    29.78R
MEDICINE HAT   MOCLDY    39  32  75 SW20G28   29.72F WCI  30
WATERTON GATE    N/A     37  27  65 SW25G39     N/A  WCI  26
CARDSTON         N/A     41  27  56 W21G35      N/A
MILK RIVER       N/A     39  32  75 S7          N/A
$$

REGIONAL REPORTS...SASKATCHEWAN

CITY           SKY/WX    TMP DP  RH WIND       PRES   REMARKS
SWIFT CURRENT  LGT SNOW  19  19 100 S25G35    29.77F WCI   2
REGINA         FLURRIES  10   5  79 SE26G37   30.03F WCI -11
SASKATOON      CLOUDY    14  10  85 SE13      29.95F WCI   0
CYPRESS HILLS    N/A     19  18  93 SW1         N/A
VAL MARIE        N/A     21  19  93 S12         N/A  WCI   9
ROCKGLEN         N/A     12  10  92 S16         N/A  WCI  -4
ASSINIBOIA       N/A     18  16  93 S2          N/A
$$




USA.gov is the U.S. government's official web portal to all federal, state and local government web resources and services.